PDT5830 KRIC-KPHL

Flight info

Callsign PDT5830
Flight time 0h 41m
Altitude 25000
Route LUCYL6 LUCYL HYTRA PAATS4
Aircraft E145/M-SDFGIRW/S

Departure

Time 2026-04-20 16:58
Airport Richmond International Airport (KRIC)

Arrival

Time 2026-04-20 17:39
Airport Philadelphia International Airport (KPHL)
Time Latitude Longitude Altitude Speed Heading
2026-04-20 16:25 37.50947 -77.33089 164 ft 0 kts 161°
2026-04-20 16:44 37.50949 -77.33089 164 ft 2 kts 161°
2026-04-20 16:44 37.50963 -77.33096 164 ft 2 kts 161°
2026-04-20 16:44 37.50977 -77.33102 164 ft 2 kts 161°
2026-04-20 16:44 37.50990 -77.33107 164 ft 0 kts 161°
2026-04-20 16:45 37.51000 -77.33113 164 ft 2 kts 127°
2026-04-20 16:45 37.51003 -77.33131 164 ft 2 kts 76°
2026-04-20 16:45 37.50995 -77.33146 164 ft 2 kts 25°
2026-04-20 16:45 37.50988 -77.33148 164 ft 0 kts 13°
2026-04-20 16:46 37.50989 -77.33148 164 ft 0 kts 13°
2026-04-20 16:48 37.50990 -77.33148 164 ft 0 kts 13°
2026-04-20 16:48 37.51001 -77.33144 164 ft 4 kts 13°
2026-04-20 16:49 37.51047 -77.33131 164 ft 7 kts 15°
2026-04-20 16:49 37.51101 -77.33112 164 ft 8 kts 15°
2026-04-20 16:49 37.51139 -77.33061 164 ft 9 kts 89°
2026-04-20 16:49 37.51125 -77.32973 164 ft 11 kts 103°
2026-04-20 16:50 37.51105 -77.32874 164 ft 9 kts 108°
2026-04-20 16:50 37.51044 -77.32848 164 ft 11 kts 191°
2026-04-20 16:50 37.50966 -77.32871 164 ft 12 kts 194°
2026-04-20 16:50 37.50877 -77.32899 164 ft 13 kts 193°
2026-04-20 16:51 37.50780 -77.32928 163 ft 15 kts 194°
2026-04-20 16:51 37.50668 -77.32962 161 ft 18 kts 194°
2026-04-20 16:51 37.50547 -77.32998 161 ft 14 kts 194°
2026-04-20 16:51 37.50475 -77.32937 161 ft 15 kts 103°
2026-04-20 16:52 37.50448 -77.32798 161 ft 17 kts 99°
2026-04-20 16:52 37.50439 -77.32642 161 ft 18 kts 94°
2026-04-20 16:52 37.50428 -77.32471 161 ft 20 kts 95°
2026-04-20 16:52 37.50417 -77.32291 161 ft 21 kts 94°
2026-04-20 16:53 37.50406 -77.32098 161 ft 22 kts 94°
2026-04-20 16:53 37.50394 -77.31894 161 ft 24 kts 94°
2026-04-20 16:53 37.50381 -77.31687 161 ft 15 kts 94°
2026-04-20 16:53 37.50352 -77.31614 161 ft 10 kts 147°
2026-04-20 16:54 37.50286 -77.31560 161 ft 12 kts 148°
2026-04-20 16:54 37.50206 -77.31497 161 ft 14 kts 148°
2026-04-20 16:54 37.50116 -77.31423 161 ft 16 kts 148°
2026-04-20 16:54 37.50012 -77.31342 161 ft 18 kts 146°
2026-04-20 16:55 37.49896 -77.31251 159 ft 20 kts 146°
2026-04-20 16:55 37.49766 -77.31145 158 ft 23 kts 148°
2026-04-20 16:55 37.49632 -77.31037 158 ft 23 kts 147°
2026-04-20 16:55 37.49530 -77.30956 158 ft 13 kts 148°
2026-04-20 16:56 37.49497 -77.30879 158 ft 11 kts 59°
2026-04-20 16:56 37.49539 -77.30794 158 ft 11 kts 58°
2026-04-20 16:56 37.49582 -77.30711 158 ft 4 kts 54°
2026-04-20 16:56 37.49611 -77.30716 158 ft 5 kts 332°
2026-04-20 16:57 37.49635 -77.30734 158 ft 0 kts 327°
2026-04-20 16:57 37.49741 -77.30820 158 ft 50 kts 327°
2026-04-20 16:57 37.50228 -77.31209 161 ft 111 kts 327°
2026-04-20 16:57 37.50988 -77.31802 318 ft 137 kts 329°
2026-04-20 16:58 37.51841 -77.32363 827 ft 146 kts 336°
2026-04-20 16:58 37.52922 -77.32287 1290 ft 173 kts 19°
2026-04-20 16:58 37.53885 -77.31180 1743 ft 204 kts 54°
2026-04-20 16:58 37.54579 -77.29627 2435 ft 209 kts 57°
2026-04-20 16:59 37.55288 -77.27899 2824 ft 230 kts 59°
2026-04-20 16:59 37.56252 -77.26247 3130 ft 245 kts 32°
2026-04-20 16:59 37.57835 -77.25413 3606 ft 251 kts 13°
2026-04-20 16:59 37.59326 -77.24297 4347 ft 260 kts 37°
2026-04-20 17:00 37.61988 -77.21130 5800 ft 266 kts 40°
2026-04-20 17:00 37.63309 -77.19504 6509 ft 268 kts 40°
2026-04-20 17:00 37.64643 -77.17857 7219 ft 270 kts 40°
2026-04-20 17:01 37.65918 -77.16281 7853 ft 273 kts 40°
2026-04-20 17:01 37.67291 -77.14608 8531 ft 275 kts 36°
2026-04-20 17:01 37.68773 -77.13132 9164 ft 277 kts 33°
2026-04-20 17:01 37.70295 -77.11604 9826 ft 280 kts 33°
2026-04-20 17:02 37.71833 -77.10056 10419 ft 285 kts 33°
2026-04-20 17:02 37.73417 -77.08461 10824 ft 297 kts 32°
2026-04-20 17:02 37.75050 -77.06815 11220 ft 308 kts 32°
2026-04-20 17:02 37.76743 -77.05106 11667 ft 317 kts 32°
2026-04-20 17:03 37.78492 -77.03340 12041 ft 327 kts 32°
2026-04-20 17:03 37.80283 -77.01530 12497 ft 334 kts 31°
2026-04-20 17:03 37.82098 -76.99695 13047 ft 336 kts 31°
2026-04-20 17:03 37.83930 -76.97842 13563 ft 340 kts 30°
2026-04-20 17:04 37.85796 -76.95953 14118 ft 343 kts 29°
2026-04-20 17:04 37.87655 -76.94070 14565 ft 348 kts 29°
2026-04-20 17:04 37.89555 -76.92145 15112 ft 350 kts 29°
2026-04-20 17:04 37.91428 -76.90107 15557 ft 361 kts 36°
2026-04-20 17:05 37.93198 -76.87851 16051 ft 364 kts 36°
2026-04-20 17:05 37.94992 -76.85577 16507 ft 368 kts 36°
2026-04-20 17:05 37.96807 -76.83272 16993 ft 371 kts 36°
2026-04-20 17:05 37.98653 -76.80930 17422 ft 375 kts 36°
2026-04-20 17:06 38.00485 -76.78601 17902 ft 378 kts 36°
2026-04-20 17:06 38.02348 -76.76231 18434 ft 378 kts 36°
2026-04-20 17:06 38.04196 -76.73880 18952 ft 379 kts 36°
2026-04-20 17:06 38.06076 -76.71487 19454 ft 381 kts 36°
2026-04-20 17:07 38.07944 -76.69106 19932 ft 384 kts 36°
2026-04-20 17:07 38.09818 -76.66698 20439 ft 384 kts 37°
2026-04-20 17:07 38.11683 -76.64272 20980 ft 384 kts 37°
2026-04-20 17:07 38.13555 -76.61840 21422 ft 387 kts 37°
2026-04-20 17:08 38.15428 -76.59402 21900 ft 388 kts 37°
2026-04-20 17:08 38.17306 -76.56954 22408 ft 388 kts 37°
2026-04-20 17:08 38.19202 -76.54485 22908 ft 389 kts 37°
2026-04-20 17:08 38.21102 -76.52007 23361 ft 391 kts 38°
2026-04-20 17:09 38.22975 -76.49559 23895 ft 390 kts 37°
2026-04-20 17:09 38.24884 -76.47066 24333 ft 392 kts 38°
2026-04-20 17:09 38.26772 -76.44598 24770 ft 394 kts 38°
2026-04-20 17:09 38.28682 -76.42100 25249 ft 394 kts 37°
2026-04-20 17:10 38.30748 -76.39822 25301 ft 398 kts 27°
2026-04-20 17:10 38.33012 -76.37680 25302 ft 410 kts 28°
2026-04-20 17:10 38.35334 -76.35429 25308 ft 421 kts 28°
2026-04-20 17:10 38.37675 -76.33148 25290 ft 432 kts 30°
2026-04-20 17:11 38.40096 -76.30784 25290 ft 441 kts 30°
2026-04-20 17:11 38.42523 -76.28410 25290 ft 449 kts 30°
2026-04-20 17:11 38.45036 -76.25950 25285 ft 456 kts 30°
2026-04-20 17:11 38.47551 -76.23486 25290 ft 463 kts 30°
2026-04-20 17:12 38.50149 -76.20937 25292 ft 470 kts 30°
2026-04-20 17:12 38.52735 -76.18400 25285 ft 476 kts 31°
2026-04-20 17:12 38.55390 -76.15790 25289 ft 481 kts 31°
2026-04-20 17:12 38.58034 -76.13190 25290 ft 486 kts 31°
2026-04-20 17:13 38.60729 -76.10537 25290 ft 491 kts 31°
2026-04-20 17:13 38.63466 -76.07857 25290 ft 494 kts 30°
2026-04-20 17:13 38.66260 -76.05267 25292 ft 497 kts 29°
2026-04-20 17:13 38.69047 -76.02666 25292 ft 500 kts 29°
2026-04-20 17:14 38.71864 -76.00032 25290 ft 498 kts 29°
2026-04-20 17:14 38.74664 -75.97412 25292 ft 497 kts 29°
2026-04-20 17:14 38.77436 -75.94817 25290 ft 500 kts 29°
2026-04-20 17:14 38.80265 -75.92164 25290 ft 503 kts 29°
2026-04-20 17:15 38.83062 -75.89538 25290 ft 503 kts 29°
2026-04-20 17:15 38.85906 -75.86865 25297 ft 503 kts 29°
2026-04-20 17:15 38.88704 -75.84234 25300 ft 504 kts 30°
2026-04-20 17:15 38.91540 -75.81563 25301 ft 504 kts 29°
2026-04-20 17:16 38.94345 -75.78921 25307 ft 504 kts 30°
2026-04-20 17:16 38.97232 -75.76196 25315 ft 504 kts 29°
2026-04-20 17:16 39.00027 -75.73556 25323 ft 505 kts 29°
2026-04-20 17:16 39.02938 -75.71050 25304 ft 499 kts 22°
2026-04-20 17:17 39.06009 -75.69100 25068 ft 477 kts 14°
2026-04-20 17:17 39.09060 -75.67752 24561 ft 455 kts
2026-04-20 17:17 39.12123 -75.67204 24076 ft 437 kts 355°
2026-04-20 17:17 39.15129 -75.66832 23560 ft 430 kts 355°
2026-04-20 17:18 39.18074 -75.66497 23088 ft 421 kts 355°
2026-04-20 17:18 39.20948 -75.66177 22538 ft 407 kts 355°
2026-04-20 17:18 39.23713 -75.65873 21960 ft 396 kts 355°
2026-04-20 17:18 39.26417 -75.65575 21371 ft 386 kts 356°
2026-04-20 17:19 39.29026 -75.64704 20785 ft 395 kts 16°
2026-04-20 17:19 39.31373 -75.62821 20205 ft 396 kts 27°
2026-04-20 17:19 39.33628 -75.60842 19526 ft 391 kts 27°
2026-04-20 17:19 39.35862 -75.58894 18855 ft 386 kts 27°
2026-04-20 17:20 39.37996 -75.56825 18138 ft 389 kts 39°
2026-04-20 17:20 39.39549 -75.53963 17438 ft 393 kts 62°
2026-04-20 17:20 39.40527 -75.50675 16770 ft 389 kts 67°
2026-04-20 17:20 39.41473 -75.47476 15931 ft 372 kts 66°
2026-04-20 17:21 39.42370 -75.44466 15382 ft 355 kts 66°
2026-04-20 17:21 39.43250 -75.41526 14868 ft 350 kts 66°
2026-04-20 17:21 39.44118 -75.38624 14354 ft 344 kts 66°
2026-04-20 17:21 39.44976 -75.35754 13804 ft 340 kts 66°
2026-04-20 17:22 39.45814 -75.32970 12973 ft 328 kts 64°
2026-04-20 17:22 39.47069 -75.30640 12450 ft 302 kts 38°
2026-04-20 17:22 39.48710 -75.29053 12001 ft 294 kts 30°
2026-04-20 17:22 39.50383 -75.27593 11532 ft 292 kts 30°
2026-04-20 17:23 39.52065 -75.26150 11218 ft 286 kts 29°
2026-04-20 17:23 39.53721 -75.24736 10838 ft 282 kts 30°
2026-04-20 17:23 39.55359 -75.23337 10465 ft 279 kts 30°
2026-04-20 17:23 39.56974 -75.21957 10109 ft 276 kts 30°
2026-04-20 17:24 39.58563 -75.20597 9835 ft 269 kts 30°
2026-04-20 17:24 39.60101 -75.19281 9612 ft 262 kts 29°
2026-04-20 17:24 39.61623 -75.17980 9403 ft 264 kts 29°
2026-04-20 17:24 39.63161 -75.16663 9221 ft 265 kts 29°
2026-04-20 17:25 39.64710 -75.15335 9067 ft 265 kts 30°
2026-04-20 17:25 39.66243 -75.14022 8900 ft 265 kts 30°
2026-04-20 17:25 39.67787 -75.12697 8692 ft 263 kts 30°
2026-04-20 17:25 39.69319 -75.11382 8483 ft 261 kts 30°
2026-04-20 17:26 39.70819 -75.10094 8249 ft 260 kts 30°
2026-04-20 17:26 39.72323 -75.08801 8014 ft 259 kts 30°
2026-04-20 17:26 39.73675 -75.07255 7783 ft 261 kts 45°
2026-04-20 17:26 39.74895 -75.05508 7554 ft 256 kts 44°
2026-04-20 17:27 39.76078 -75.03828 7351 ft 251 kts 44°
2026-04-20 17:27 39.77249 -75.02163 7130 ft 246 kts 44°
2026-04-20 17:27 39.78402 -75.00524 6913 ft 241 kts 44°
2026-04-20 17:27 39.79512 -74.98944 6720 ft 236 kts 43°
2026-04-20 17:28 39.80616 -74.97372 6530 ft 231 kts 43°
2026-04-20 17:28 39.81685 -74.95850 6356 ft 226 kts 43°
2026-04-20 17:28 39.82742 -74.94343 6183 ft 221 kts 43°
2026-04-20 17:28 39.83605 -74.92716 5995 ft 222 kts 67°
2026-04-20 17:29 39.84008 -74.90804 5834 ft 219 kts 71°
2026-04-20 17:29 39.84401 -74.88897 5631 ft 217 kts 71°
2026-04-20 17:29 39.84789 -74.86998 5372 ft 217 kts 71°
2026-04-20 17:29 39.85173 -74.85109 5118 ft 218 kts 71°
2026-04-20 17:30 39.85641 -74.83243 4856 ft 213 kts 54°
2026-04-20 17:30 39.86706 -74.82061 4666 ft 195 kts 14°
2026-04-20 17:30 39.87986 -74.81997 4449 ft 181 kts 348°
2026-04-20 17:30 39.89217 -74.82233 4187 ft 178 kts 348°
2026-04-20 17:31 39.90437 -74.82467 3923 ft 175 kts 348°
2026-04-20 17:31 39.91625 -74.82697 3694 ft 170 kts 348°
2026-04-20 17:31 39.92657 -74.83301 3529 ft 158 kts 319°
2026-04-20 17:31 39.93468 -74.84218 3363 ft 152 kts 318°
2026-04-20 17:32 39.94245 -74.85105 3193 ft 146 kts 315°
2026-04-20 17:32 39.94632 -74.86282 3018 ft 144 kts 270°
2026-04-20 17:32 39.94390 -74.87592 2993 ft 159 kts 260°
2026-04-20 17:32 39.94102 -74.89073 2974 ft 171 kts 261°
2026-04-20 17:33 39.93805 -74.90578 2954 ft 172 kts 261°
2026-04-20 17:33 39.93510 -74.92062 2949 ft 168 kts 261°
2026-04-20 17:33 39.93221 -74.93529 2946 ft 164 kts 261°
2026-04-20 17:33 39.92940 -74.94961 2952 ft 163 kts 261°
2026-04-20 17:34 39.92657 -74.96395 2957 ft 166 kts 261°
2026-04-20 17:34 39.92368 -74.97862 2957 ft 168 kts 261°
2026-04-20 17:34 39.92075 -74.99343 2955 ft 166 kts 261°
2026-04-20 17:34 39.91787 -75.00800 2956 ft 165 kts 261°
2026-04-20 17:35 39.91499 -75.02259 2953 ft 165 kts 261°
2026-04-20 17:35 39.91212 -75.03713 2923 ft 168 kts 261°
2026-04-20 17:35 39.90924 -75.05175 2715 ft 167 kts 261°
2026-04-20 17:35 39.90634 -75.06636 2499 ft 165 kts 261°
2026-04-20 17:36 39.90356 -75.08028 2298 ft 153 kts 261°
2026-04-20 17:36 39.90099 -75.09323 2095 ft 142 kts 262°
2026-04-20 17:36 39.89857 -75.10545 1890 ft 134 kts 263°
2026-04-20 17:36 39.89630 -75.11692 1714 ft 133 kts 262°
2026-04-20 17:37 39.89398 -75.12872 1533 ft 135 kts 262°
2026-04-20 17:37 39.89159 -75.14075 1346 ft 136 kts 261°
2026-04-20 17:37 39.88924 -75.15256 1158 ft 136 kts 260°
2026-04-20 17:37 39.88685 -75.16460 970 ft 136 kts 260°
2026-04-20 17:38 39.88447 -75.17641 782 ft 137 kts 258°
2026-04-20 17:38 39.88196 -75.18850 595 ft 139 kts 258°
2026-04-20 17:38 39.87953 -75.20059 403 ft 138 kts 259°
2026-04-20 17:38 39.87725 -75.21262 215 ft 137 kts 256°
2026-04-20 17:39 39.87484 -75.22472 36 ft 137 kts 257°
2026-04-20 17:39 39.87269 -75.23572 8 ft 102 kts 255°
2026-04-20 17:39 39.87128 -75.24253 8 ft 65 kts 257°
2026-04-20 17:39 39.87047 -75.24674 12 ft 17 kts 258°
2026-04-20 17:40 39.87056 -75.24800 12 ft 10 kts 312°
2026-04-20 17:40 39.87130 -75.24840 12 ft 12 kts 348°
2026-04-20 17:40 39.87207 -75.24812 12 ft 13 kts 71°
2026-04-20 17:40 39.87233 -75.24682 11 ft 16 kts 76°
2026-04-20 17:41 39.87266 -75.24519 8 ft 19 kts 75°
2026-04-20 17:41 39.87302 -75.24336 8 ft 21 kts 76°
2026-04-20 17:41 39.87341 -75.24138 8 ft 23 kts 76°
2026-04-20 17:41 39.87385 -75.23923 8 ft 24 kts 73°
2026-04-20 17:42 39.87443 -75.23719 8 ft 22 kts 48°
2026-04-20 17:42 39.87561 -75.23587 8 ft 22 kts 25°
2026-04-20 17:42 39.87714 -75.23515 8 ft 24 kts 19°
2026-04-20 17:42 39.87869 -75.23447 8 ft 21 kts 16°
2026-04-20 17:43 39.88019 -75.23474 8 ft 23 kts 339°
2026-04-20 17:43 39.88174 -75.23550 8 ft 24 kts 339°
2026-04-20 17:43 39.88294 -75.23610 8 ft 6 kts 341°
2026-04-20 17:43 39.88322 -75.23650 8 ft 6 kts 276°
2026-04-20 17:44 39.88303 -75.23680 8 ft 3 kts 189°
2026-04-20 17:44 39.88275 -75.23686 8 ft 3 kts 193°
2026-04-20 17:44 39.88270 -75.23688 8 ft 0 kts 193°